map of FEZ home
Great Circle Mapper logo
FEZ - Airport
Location
City:  Fez, Morocco
Near (Alt.):Fes
Name:Sass
ICAO / IATA:GMFF / FEZ

Details
Type:Airport (Aerodrome, Airfield)
Use:Public/Civil, International (customs port of entry)
Latitude:3355'38"N (33.927261)
Longitude:458'41"W (-4.977957)
Datum:WGS 1984
Elevation:1900 ft (579 m)
Variation:1.35W (WMM2015 magnetic declination)
0.11 annual change
Runways:1
Longest:10499 × 148 ft (3200 × 45 m), paved

Time
Time Zone:UTC+0 (DST+1)
Local Time:

Weather
METAR:GMFF 011400Z 29008KT 230V340 9999 SCT026 11/02 Q1022 NOSIG
TAF:GMFF 011100Z 0112/0218 28006KT 9999 SCT030
BECMG 0120/0200 22004K T FEW030
BECMG 0208/0212 30010KT
BECMG 0214/0218 SCT030

Related Locations
Nearby:
Farthest:KKE: 12322 mi / 19830 km
Kerikeri/Bay of Islands, NZ

Find:

   beyond  
but within

Other Information
Maps:
NOTAMs:
Links:
Sources:

  
flag of Morocco   

Sectional Chart

Flight Planning
at skyvector.com

Satellite Image

Google Maps Satellite View

 

Copyright © 2004-2015 Karl L. Swartz. All rights reserved.
The Great Circle Mapper name and logo are trademarks of the Great Circle Mapper.
All other trademarks mentioned herein belong to their respective owners.
Please see credits for attibutions and further copyright information.

  Follow gcmap on Facebook Follow gcmap on Twitter

hCard Microformat

Geo Microformat